Home   Weather   Ludwigsfelde   Past weeks

Flag for Germany Past Weather in Ludwigsfelde, Brandenburg, Germany — Yesterday and Last 2 Weeks

Now
68 °F

Clear.


Feels Like: 68 °F
Forecast: 62 / 78 °F
Wind: 6 mph from West

Location: Berlin-Schoenefeld

Current Time: Aug 18, 2017 at 1:27:01 am

Latest Report: Aug 18, 2017 at 12:50 am


Visibility: 10 mi

Pressure: 29.98 "Hg

Humidity: 88%

Dew Point: 64 °F

Location of LudwigsfeldeLocation

Past Weather in Ludwigsfelde — Graph

°F

Ludwigsfelde Temperature Yesterday

Maximum temperature yesterday: 79 °F (at 2:20 pm)
Minimum temperature yesterday: 57 °F (at 4:20 am)
Average temperature yesterday: 67 °F

High & Low Weather Summary for the Past Weeks

 TemperatureHumidityPressure
High82 °F (Aug 3, 4:50 pm)100% (Aug 6, 2:20 am)30.24 "Hg (Aug 6, 2:20 am)
Low50 °F (Aug 7, 4:50 am)31% (Aug 7, 4:50 pm)29.74 "Hg (Aug 3, 5:20 pm)
Average67 °F72%30.02 "Hg
* Reported Aug 3 12:20 am — Aug 18 12:20 am, Ludwigsfelde. Weather by CustomWeather, © 2017

Note: Actual official high and low records may vary slightly from our data, if they occured in-between our weather recording intervals... More about our weather records

Advertising

Ludwigsfelde Weather History for the Previous 24 Hours

Scroll right to see more
 ConditionsComfort  
Time TempWeatherWind HumidityBarometerVisibility
12:20 am
Fri, Aug 18
68 °FClear.3 mph88%29.98 "Hg10 mi
11:50 pm
Thu, Aug 17
70 °FClear.5 mph83%29.98 "Hg10 mi
11:20 pm70 °FPassing clouds.5 mph78%29.98 "HgN/A
10:50 pm70 °FPassing clouds.3 mph78%29.95 "HgN/A
10:20 pm70 °FClear.3 mph83%29.95 "Hg10 mi
9:50 pm72 °FLight rain. Clear.2 mph73%29.98 "HgN/A
9:20 pm72 °FPassing clouds.5 mph69%29.98 "HgN/A
8:50 pm73 °FPassing clouds.6 mph65%29.98 "HgN/A
7:50 pm73 °FSunny.5 mph69%29.98 "Hg10 mi
7:20 pm75 °FSunny.6 mph65%29.98 "Hg10 mi
6:50 pm75 °FPassing clouds.7 mph65%29.98 "HgN/A
6:20 pm77 °FPassing clouds.8 mph61%29.98 "HgN/A
5:50 pm77 °FSunny.9 mph61%29.98 "Hg10 mi
5:20 pm77 °FSunny.9 mph57%30.01 "Hg10 mi
4:50 pm77 °FPassing clouds.9 mph57%30.01 "HgN/A
4:20 pm77 °FSunny.8 mph57%30.01 "Hg10 mi
3:50 pm77 °FBroken clouds.9 mph61%30.01 "HgN/A
3:20 pm77 °FBroken clouds.8 mph57%30.04 "HgN/A
2:50 pm79 °FBroken clouds.9 mph58%30.04 "HgN/A
2:20 pm79 °FWarm.9 mph54%30.04 "HgN/A
1:50 pm77 °FPartly sunny.10 mph61%30.07 "HgN/A
1:20 pm77 °FPartly sunny.10 mph57%30.07 "HgN/A
12:50 pm75 °FPartly sunny.9 mph61%30.07 "HgN/A
12:20 pm75 °FPartly sunny.10 mph65%30.07 "HgN/A
11:50 am73 °FPartly sunny.12 mph69%30.09 "HgN/A
11:20 am72 °FPassing clouds.10 mph73%30.09 "HgN/A
10:50 am72 °FPassing clouds.10 mph73%30.12 "HgN/A
10:20 am70 °FPassing clouds.9 mph78%30.12 "HgN/A
9:50 am68 °FPassing clouds.9 mph83%30.12 "HgN/A
9:20 am66 °FPassing clouds.7 mph88%30.12 "HgN/A
8:50 am64 °FPassing clouds.5 mph100%30.12 "Hg4 mi
8:31 am63 °FFog.5 mph100%30.12 "Hg1 mi
8:20 am61 °FFog.5 mph100%30.12 "Hg1 mi
7:50 am61 °FFog.3 mph100%30.12 "Hg0 mi
7:31 am61 °FFog.3 mph94%30.12 "Hg0 mi
7:20 am59 °FFog.5 mph100%30.12 "Hg0 mi
6:50 am59 °FFog.5 mph94%30.12 "Hg1 mi
6:24 am57 °FFog.5 mph100%30.12 "Hg0 mi
6:20 am57 °FFog.5 mph100%30.12 "Hg0 mi
5:53 am57 °FFog.1 mph100%30.12 "Hg1 mi
5:31 am59 °FFog.2 mph94%30.12 "Hg1 mi
5:20 am57 °FFog.3 mph100%30.12 "Hg0 mi
5:03 am57 °FCool.3 mph100%30.12 "Hg1 mi
4:28 am57 °FCool.3 mph100%30.12 "Hg2 mi
4:20 am57 °FCool.2 mph100%30.12 "Hg2 mi
4:01 am59 °FFog.2 mph94%30.15 "Hg1 mi
3:50 am59 °FFog.2 mph100%30.15 "Hg1 mi
3:20 am59 °FFog.2 mph100%30.15 "Hg0 mi
2:59 am59 °FFog.2 mph100%30.15 "Hg1 mi
2:20 am61 °FFog.3 mph94%30.15 "Hg3 mi
1:50 am61 °FCool.2 mph100%30.15 "HgN/A
1:31 am61 °FFog.2 mph100%30.15 "HgN/A
1:20 am61 °FFog.2 mph100%30.15 "HgN/A
1:01 am63 °FMild.2 mph94%30.15 "HgN/A
Weather by CustomWeather, © 2017

See weather overviewHow to use our weather pages